Tracking 35275 objects as of 8-Sep-2026
HD Live streaming from Space Station
objects crossing your sky now

STARLINK-32807

Track STARLINK-32807 now!
10-day predictions
STARLINK-32807 is classified as:


NORAD ID: 62845
Int'l Code: 2025-019S
Launch date: January 27, 2025
Source: United States (US)
Launch site: AIR FORCE EASTERN TEST RANGE (AFETR)
Your satellite tracking list
Your tracking list is empty




NASA's NSSDC Master Catalog

Two Line Element Set (TLE):
1 62845U 25019S   26251.03142390  .00013506  00000-0  49927-3 0  9999
2 62845  43.0019 131.7715 0000575 291.8811  68.1979 15.27590111 90221
Source of the keplerian elements: AFSPC